Location: *
(28.3744°N, 81.5492°W)
Time: 03:56:30
(UTC+00:00)

SL-4 R/B - Pass Details

Date: 15 June 2025
Orbit: 393 x 546 km, 51.6° (Epoch: 11 July)

Event Time Altitude Azimuth Distance (km) Brightness Sun altitude
Rises 02:55:41 0° 237° (WSW) 2,690 5.6 -26.8°
Enters shadow 02:57:37 - 243° (WSW) 1,949 4.9 -27.1°
Exits shadow 03:02:28 40° 339° (NNW) 815 3.2 -27.7°
Drops below altitude 10° 03:05:50 10° 28° (NNE) 1,799 4.9 -28.2°
Sets 03:08:09 0° 36° (NE) 2,678 5.7 -28.5°
